Location: Maiden
(35.5760°N, 81.2120°W)
Time: 03:17:55
(UTC-04:00)

Cosmos 1328 Rocket - Pass Details

Date: 02 August 2020
Orbit: 601 x 627 km, 82.5° (Epoch: 11 August)

Event Time Altitude Azimuth Distance (km) Brightness Sun altitude
Rises 21:13:27 0° 359° (N) 2,884 7.4 -9.3°
Reaches altitude 10° 21:15:43 10° 4° (N) 1,980 6.5 -9.7°
Maximum altitude 21:20:00 51° 81° (E) 779 3.8 -10.4°
Drops below altitude 10° 21:24:16 10° 158° (SSE) 1,981 5.7 -11.2°
Enters shadow 21:24:23 - 158° (SSE) 2,029 5.7 -11.2°
